Date,TemperatureHighF,TemperatureAvgF,TemperatureLowF,DewpointHighF,DewpointAvgF,DewpointLowF,HumidityHigh,HumidityAvg,HumidityLow,PressureMaxIn,PressureMinIn,WindSpeedMaxMPH,WindSpeedAvgMPH,GustSpeedMaxMPH,PrecipitationSumIn
2013-1-1,30.0,22.1,5.1,24.1,13.2,-3.2,81,68,55,30.04,29.82,6,0,6,0.00
2013-1-2,23.9,8.8,-1.4,14.5,0.3,-10.0,76,68,61,30.25,29.97,0,0,0,0.00
2013-1-3,15.6,2.8,-7.9,1.0,-6.5,-15.1,71,65,52,30.26,30.04,0,0,0,0.00
2013-1-4,34.3,21.7,-0.2,22.8,13.2,-7.5,81,70,61,30.04,29.89,20,2,20,0.00
2013-1-5,35.9,27.1,14.1,22.1,16.7,7.1,75,65,50,30.35,29.93,16,2,16,0.00
2013-1-6,35.4,25.9,13.6,26.4,19.2,6.5,81,76,69,30.30,30.04,7,0,7,0.00
2013-1-7,31.1,23.5,5.9,25.9,15.3,-1.4,82,71,57,30.47,30.08,11,1,11,0.00
2013-1-8,37.9,19.5,3.3,25.5,11.4,-3.3,80,71,58,30.49,30.34,9,0,9,0.00
2013-1-9,38.8,25.6,10.5,28.5,18.1,4.6,79,74,64,30.50,30.10,15,2,15,0.00
2013-1-10,41.7,34.0,25.7,27.6,22.9,18.8,76,64,51,30.66,30.15,15,3,15,0.00
2013-1-11,37.5,29.0,19.2,28.8,21.7,13.5,85,74,55,30.64,30.30,15,1,15,0.00
2013-1-12,42.0,36.1,32.9,38.1,32.5,28.5,89,87,84,30.32,30.23,0,0,0,0.00
2013-1-13,42.9,38.3,33.4,39.6,35.5,30.4,90,89,89,30.26,30.11,0,0,0,0.00
2013-1-14,52.1,39.4,30.7,48.6,33.9,18.8,92,81,60,30.38,29.98,8,0,8,0.00
2013-1-15,30.7,30.3,29.8,25.6,25.2,24.7,81,81,80,30.41,30.35,0,0,0,0.00
2013-1-19,38.4,28.9,15.2,24.2,18.0,6.6,71,64,54,30.37,29.94,13,1,13,0.00
2013-1-20,42.0,31.6,19.5,29.9,19.8,4.6,75,62,45,30.03,29.68,18,3,18,0.00
2013-1-21,25.7,17.4,7.7,11.5,5.2,-2.7,76,59,47,30.13,29.88,13,1,13,0.00
2013-1-22,22.8,12.8,-1.6,11.6,3.7,-9.5,77,67,50,30.13,29.86,16,1,16,0.00
2013-1-23,8.6,0.4,-11.0,-6.9,-12.7,-20.8,69,54,42,30.18,30.09,16,2,16,0.00
2013-1-24,12.9,-0.7,-15.1,-3.1,-13.6,-24.1,68,54,43,30.30,30.14,20,2,20,0.00
2013-1-25,16.5,6.5,-6.5,-0.5,-7.3,-16.2,65,53,42,30.36,30.13,9,1,9,0.00
2013-1-26,18.6,9.4,0.8,1.5,-3.4,-9.4,71,56,40,30.31,30.10,19,2,19,0.00
2013-1-27,24.4,8.6,-3.8,6.2,-3.8,-12.1,71,57,41,30.54,30.30,12,1,12,0.00
2013-1-28,23.3,15.1,2.1,15.9,7.3,-7.2,78,71,60,30.55,30.12,9,0,9,0.00
2013-1-29,35.2,27.4,20.1,28.2,21.5,14.2,85,78,71,30.28,30.13,7,0,7,0.00
2013-1-30,49.1,40.4,32.1,46.5,37.5,28.4,91,89,86,30.22,29.56,15,1,15,0.00
2013-1-31,54.6,38.5,24.0,52.3,29.7,9.3,92,72,50,29.65,29.08,24,4,24,0.00
2013-2-1,25.7,20.8,14.5,13.5,9.0,3.3,73,60,53,30.13,29.65,17,3,17,0.00
2013-2-2,22.8,16.6,6.9,10.6,6.1,-1.1,72,63,54,30.25,30.11,11,1,11,0.00
2013-2-3,29.8,21.3,10.7,16.7,11.3,4.2,77,65,53,30.12,29.83,10,1,10,0.00
2013-2-4,25.7,18.2,11.8,11.1,6.0,-0.5,76,59,45,29.99,29.81,18,2,18,0.00
2013-2-5,27.1,16.4,3.5,11.3,4.8,-4.3,73,60,46,30.09,29.99,9,1,9,0.00
2013-2-6,31.6,24.1,14.1,22.3,13.6,0.7,79,65,50,30.41,29.99,11,1,11,0.00
2013-2-7,24.4,16.3,5.5,5.5,1.7,-3.4,68,53,43,30.59,30.39,9,1,9,0.00
2013-2-8,22.6,19.1,14.5,14.4,9.3,1.0,80,66,44,30.54,29.89,16,2,16,0.00
2013-2-9,19.9,13.4,6.4,12.2,5.6,-3.5,82,71,60,30.35,29.89,19,1,19,0.00
2013-2-10,31.8,12.7,-6.8,10.0,0.1,-14.7,71,58,38,30.53,30.35,7,1,7,0.00
2013-2-11,35.4,26.0,4.8,31.6,20.4,-4.1,88,80,66,30.41,29.74,9,1,9,0.00
2013-2-12,39.5,34.3,31.2,30.0,26.7,23.2,87,74,63,29.98,29.73,13,2,13,0.00
2013-2-13,39.0,30.2,23.7,25.2,20.4,15.9,75,67,54,29.97,29.87,12,1,12,0.00
2013-2-14,39.3,27.5,19.5,25.1,18.4,13.4,79,69,52,30.07,29.85,10,1,10,0.00
2013-2-15,48.0,31.4,18.3,31.2,21.6,11.7,81,68,48,30.08,30.02,17,1,17,0.00
2013-2-16,35.7,29.3,20.8,25.1,18.9,5.4,81,65,49,30.10,29.89,12,1,12,0.00
2013-2-17,20.8,15.5,9.1,5.4,1.7,-2.9,62,54,49,29.89,29.61,18,1,18,0.00
2013-2-18,24.9,15.1,6.0,4.4,-0.5,-9.2,61,50,37,30.22,29.82,12,2,12,0.00
2013-2-19,10.0,8.7,8.0,-1.8,-2.3,-2.9,62,60,57,30.25,30.22,0,0,0,0.00
2013-7-26,64.7,60.1,56.4,58.7,55.6,52.3,87,85,81,30.22,30.19,2,0,2,0.00
2013-7-27,82.5,65.1,50.5,63.7,56.4,47.0,90,75,49,30.24,30.18,8,0,8,0.00
2013-7-28,78.4,66.9,56.1,66.1,60.2,51.8,88,80,60,30.21,30.16,8,0,8,0.00
2013-7-29,81.6,69.9,58.6,66.2,61.6,53.0,89,76,54,30.28,30.17,11,1,11,0.00
2013-7-30,78.2,63.6,50.7,59.4,53.9,46.3,88,72,49,30.31,30.25,8,1,8,0.00
2013-7-31,81.5,65.1,50.7,62.3,55.3,46.0,87,72,48,30.33,30.24,7,0,9,0.00
2013-8-1,77.7,61.5,51.8,62.4,55.4,47.3,89,81,56,30.25,30.05,11,1,11,0.00
2013-8-2,80.2,67.7,58.8,63.5,58.8,52.8,90,75,48,30.07,30.00,10,1,10,0.00
2013-8-3,78.6,63.4,53.4,60.4,54.1,48.7,89,73,49,30.07,29.98,12,1,12,0.00
2013-8-4,73.2,59.5,49.4,58.8,51.8,44.9,88,77,57,30.11,30.00,7,0,7,0.00
2013-8-5,73.7,57.6,46.5,50.4,45.9,41.0,89,68,39,30.25,30.09,20,1,20,0.00
2013-8-6,76.2,58.4,42.4,56.0,47.2,37.2,85,68,47,30.33,30.25,11,0,11,0.00
2013-8-7,79.1,63.1,49.8,59.3,52.8,44.4,86,71,46,30.35,30.27,12,1,12,0.00
2013-8-8,80.6,70.1,62.6,68.4,63.3,56.3,88,80,66,30.27,30.21,12,2,12,0.00
2013-8-9,72.8,69.6,65.8,69.6,66.1,62.8,90,89,84,30.21,29.97,16,1,16,0.00
2013-8-10,78.8,66.3,53.4,62.8,56.2,47.1,91,72,43,30.23,30.02,12,1,12,0.00
2013-8-11,78.0,59.9,44.9,57.3,49.7,40.4,87,71,44,30.27,30.20,8,1,8,0.00
2013-8-12,78.6,62.2,50.0,60.9,53.0,45.3,87,73,53,30.23,30.13,7,0,7,0.00
2013-8-13,69.9,61.4,53.7,65.3,57.4,49.3,89,87,82,30.14,29.90,5,0,5,0.00
2013-8-14,71.2,59.2,48.9,60.2,51.9,43.7,89,78,56,30.17,29.89,8,1,8,0.00
2013-8-15,73.4,56.3,41.5,55.2,47.5,37.4,89,74,50,30.30,30.16,8,1,8,0.00
2013-8-16,74.1,57.9,44.2,58.9,49.8,40.0,87,76,56,30.39,30.27,8,0,8,0.00
2013-8-17,79.7,61.0,46.2,60.2,51.9,41.6,88,74,49,30.47,30.39,9,0,9,0.00
2013-8-18,73.5,61.6,50.9,62.6,55.0,46.3,87,79,63,30.47,30.28,6,0,6,0.00
2013-8-19,78.9,63.5,50.5,63.0,55.7,46.4,88,77,54,30.29,30.16,8,0,8,0.00
2013-8-20,84.0,65.9,52.1,64.5,56.8,47.9,88,74,50,30.32,30.21,8,0,8,0.00
2013-8-21,84.2,66.9,53.7,67.9,58.3,49.0,88,75,55,30.35,30.24,7,0,7,0.00
2013-8-22,84.7,68.2,54.5,68.3,59.7,50.2,89,75,53,30.25,30.05,8,1,8,0.00
2013-8-23,74.1,63.3,51.9,61.7,55.6,45.6,89,77,58,30.35,30.07,9,0,9,0.00
2013-8-24,75.5,57.7,43.3,57.2,47.5,38.8,87,71,49,30.53,30.35,6,0,6,0.00
2013-8-25,79.5,59.9,42.6,60.5,49.6,37.7,86,71,48,30.55,30.36,10,0,10,0.00
2013-8-26,77.3,65.9,58.8,65.9,60.2,52.3,89,82,66,30.37,30.10,15,1,15,0.00
2013-8-27,80.7,69.6,63.1,70.5,64.4,59.9,91,84,71,30.13,30.07,6,0,6,0.00
2013-8-28,80.9,68.4,59.1,72.5,63.3,55.6,90,84,70,30.22,30.08,8,0,8,0.00
2013-8-29,70.8,64.1,60.6,65.2,59.7,56.9,91,86,76,30.27,30.16,7,0,7,0.00
2013-8-30,82.7,68.5,59.7,68.5,61.8,56.5,91,80,60,30.22,30.03,8,1,8,0.00
2013-8-31,75.9,68.7,62.9,70.2,64.7,58.7,91,87,81,30.04,29.98,10,1,10,0.00
2013-9-1,80.6,70.8,65.4,71.2,66.5,62.4,91,87,73,30.09,30.01,6,0,6,0.00
2013-9-2,75.9,69.7,65.8,70.4,66.1,62.3,91,88,80,30.08,29.93,9,0,9,0.00
2013-9-3,71.2,63.4,55.5,64.8,59.4,51.7,91,87,74,30.02,29.92,7,0,7,0.00
2013-9-4,77.3,62.4,51.6,59.9,53.9,48.1,91,76,49,30.12,30.01,10,1,10,0.00
2013-9-5,68.9,56.5,42.9,52.8,47.5,36.5,88,73,45,30.33,30.05,7,1,7,0.00
2013-9-6,67.6,49.8,34.3,46.8,39.6,29.8,98,70,44,30.40,30.26,10,0,10,0.00
2013-9-7,67.4,53.3,40.6,55.9,46.8,36.1,87,79,61,30.27,30.04,8,0,8,0.00
2013-9-8,65.8,55.8,42.0,55.4,47.0,35.3,89,74,51,30.28,29.96,10,1,10,0.00
2013-9-9,67.2,50.7,33.8,50.0,41.1,28.9,86,71,48,30.38,30.28,10,1,10,0.00
2013-9-10,71.7,60.4,50.1,66.8,56.4,45.1,91,87,79,30.30,30.20,9,1,9,0.00
2013-9-11,89.4,75.0,66.9,75.7,68.8,62.9,93,82,61,30.28,30.16,11,1,11,0.00
2013-9-12,75.7,66.8,64.2,71.1,63.4,60.1,91,89,84,30.17,29.88,8,1,8,0.00
2013-9-13,64.9,61.2,53.9,62.2,57.7,49.3,92,88,84,30.00,29.82,7,1,7,0.00
2013-9-14,61.3,53.7,46.9,51.9,48.3,42.9,89,82,70,30.22,29.99,9,1,9,0.00
2013-9-15,68.7,53.7,43.3,54.1,46.6,40.0,90,78,57,30.30,30.21,9,0,9,0.00
2013-9-16,58.8,51.2,40.4,52.8,45.3,33.2,89,80,67,30.43,30.17,11,1,11,0.00
2013-9-17,62.7,45.8,31.8,45.2,37.1,27.8,98,73,51,30.57,30.42,6,0,6,0.00
2013-9-18,69.6,49.8,33.4,51.8,40.9,29.0,87,73,45,30.51,30.32,7,0,7,0.00
2013-9-19,75.7,54.6,38.4,58.9,45.6,34.2,88,73,48,30.33,30.23,5,0,5,0.00
2013-9-20,79.1,57.4,41.5,60.5,48.3,37.0,88,73,50,30.27,30.17,11,0,11,0.00
2013-9-21,70.8,59.5,44.9,59.3,52.6,40.1,90,79,55,30.18,29.86,16,3,16,0.00
2013-9-22,64.5,57.8,43.8,60.2,51.1,38.4,89,79,63,30.04,29.79,13,1,13,0.00
2013-9-23,57.7,46.6,38.1,43.0,38.4,33.9,87,74,56,30.20,30.03,12,1,12,0.00
2013-9-24,64.5,51.6,43.3,45.6,40.9,37.4,81,68,48,30.18,30.04,12,1,12,0.00
2013-9-25,68.1,52.7,40.8,51.4,44.2,36.3,87,74,55,30.18,30.06,9,1,9,0.00
2013-9-26,67.2,53.1,44.7,50.6,44.4,39.6,85,73,54,30.33,30.17,8,0,8,0.00
2013-9-27,62.2,51.8,43.8,52.0,46.0,39.1,86,81,67,30.45,30.31,6,0,6,0.00
2013-9-28,74.3,53.2,38.8,56.2,45.2,34.9,90,76,51,30.50,30.44,5,0,5,0.00
2013-9-29,72.3,52.5,39.0,57.2,44.5,34.8,88,75,55,30.44,30.27,6,0,6,0.00
2013-9-30,72.5,51.8,35.9,54.2,42.5,31.0,87,72,46,30.30,30.15,6,0,6,0.00
2013-10-1,75.7,55.3,37.2,56.8,46.4,32.5,88,73,49,30.17,30.06,11,0,11,0.00
2013-10-2,77.3,58.8,44.4,60.2,50.5,39.8,88,75,53,30.18,30.05,9,0,9,0.00
2013-10-3,73.9,56.0,41.1,55.1,45.8,36.6,87,71,42,30.28,30.17,7,0,7,0.00
2013-10-4,61.7,52.6,42.4,54.6,46.8,37.1,86,81,73,30.28,30.22,4,0,4,0.00
2013-10-5,63.5,57.7,53.9,53.7,51.6,49.2,87,80,69,30.30,30.23,5,0,5,0.00
2013-10-6,56.4,50.9,47.8,52.3,47.1,44.1,88,87,84,30.38,30.29,9,1,9,0.00
2013-10-7,69.6,57.3,49.2,63.3,53.7,45.5,91,88,80,30.31,29.89,17,2,17,0.00
2013-10-8,62.2,48.4,35.2,48.2,39.8,29.6,90,74,47,30.54,30.11,11,1,11,0.00
2013-10-9,63.6,44.1,30.0,47.5,35.0,25.7,87,72,47,30.63,30.52,7,0,7,0.00
2013-10-10,60.4,46.2,31.8,47.6,38.8,26.9,87,76,60,30.53,30.36,4,0,4,0.00
2013-10-11,68.5,52.3,41.5,51.5,42.7,34.8,87,72,47,30.36,30.30,5,0,5,0.00
2013-10-12,54.1,47.1,37.9,49.2,42.2,33.1,87,83,78,30.54,30.35,9,0,9,0.00
2013-10-13,62.2,50.1,41.5,49.7,43.0,36.5,88,77,61,30.59,30.52,12,1,12,0.00
2013-10-14,67.4,53.4,40.6,52.6,45.2,35.6,87,75,56,30.55,30.39,9,0,9,0.00
2013-10-15,62.4,56.7,50.7,53.7,50.0,46.3,87,78,70,30.45,30.33,10,0,10,0.00
2013-10-16,60.0,53.1,45.6,51.4,46.6,41.4,87,79,69,30.33,30.05,7,1,7,0.00
2013-10-17,68.7,56.0,48.9,54.9,46.6,40.6,88,72,48,30.06,29.89,15,1,15,0.00
2013-10-18,60.0,52.7,43.1,52.2,45.2,35.6,88,76,61,30.07,29.76,17,1,17,0.00
2013-10-19,63.3,47.9,31.6,47.1,37.6,27.1,87,69,51,30.11,29.89,13,1,13,0.00
2013-10-20,55.9,46.6,34.8,42.2,36.5,28.0,85,69,50,30.19,29.84,15,1,15,0.00
2013-10-21,62.4,44.9,28.9,44.1,34.6,24.0,84,68,48,30.25,30.13,10,0,10,0.00
2013-10-22,53.4,45.2,31.8,46.5,38.5,26.7,85,77,67,30.13,29.89,16,1,16,0.00
2013-10-23,51.0,38.9,28.5,37.6,29.9,24.3,86,71,49,29.94,29.76,10,1,10,0.00
2013-10-24,44.9,38.3,28.0,33.2,29.0,22.9,83,70,55,30.00,29.81,20,1,20,0.00
2013-10-25,45.6,34.3,25.8,31.0,25.0,18.6,83,69,50,30.25,30.00,10,0,10,0.00
2013-10-26,46.7,36.2,23.7,34.8,25.4,17.6,83,66,48,30.25,29.98,17,1,17,0.00
2013-10-27,50.9,41.5,30.0,34.7,29.3,21.7,71,62,49,30.20,29.91,18,1,18,0.00
2013-10-28,51.6,35.7,27.1,36.0,25.7,18.9,82,68,51,30.50,30.19,15,1,15,0.00
2013-10-29,44.0,29.9,18.6,28.4,18.6,12.8,80,64,41,30.57,30.47,8,0,8,0.00
2013-10-30,45.6,33.1,25.7,35.1,25.4,17.2,80,73,65,30.47,30.32,10,0,10,0.00
2013-10-31,56.4,41.0,26.7,53.8,37.3,21.6,91,86,80,30.36,29.89,22,2,22,0.00
2013-11-1,61.3,56.7,48.2,58.1,52.2,40.8,91,85,75,29.89,29.56,23,3,23,0.00
2013-11-2,60.4,46.4,33.2,47.2,39.0,29.1,89,77,57,29.96,29.78,12,1,12,0.00
2013-11-3,40.6,33.5,25.5,34.7,23.0,15.6,83,66,47,30.55,29.97,17,2,17,0.00
2013-11-4,39.5,28.0,19.2,23.5,17.0,12.1,78,64,45,30.80,30.55,7,0,7,0.00
2013-11-5,46.0,31.4,20.4,30.8,22.6,14.2,80,71,54,30.80,30.60,11,1,12,0.00
2013-11-6,55.2,44.0,31.8,43.6,36.5,26.7,85,75,64,30.61,30.14,15,2,15,0.00
2013-11-7,54.1,46.9,35.4,50.1,41.8,28.8,87,82,77,30.14,29.89,16,2,16,0.00
2013-11-8,41.5,33.2,25.1,31.8,24.6,20.4,84,71,61,30.20,29.98,12,2,12,0.00
2013-11-9,40.6,34.0,28.0,26.7,23.0,19.5,76,64,51,30.32,30.11,13,1,13,0.00
2013-11-10,42.9,36.9,30.2,37.1,31.4,25.6,86,81,73,30.11,29.86,8,0,8,0.00
2013-11-12,26.2,24.1,22.4,15.6,14.0,12.9,68,65,63,30.29,30.27,7,1,7,0.00
2013-11-13,29.1,22.8,15.8,17.5,12.4,8.3,75,64,52,30.38,30.21,10,1,17,0.00
2013-11-14,45.1,31.6,22.2,29.7,21.4,14.3,76,66,53,30.22,30.15,12,1,12,0.00
2013-11-15,51.6,33.2,21.7,31.0,21.7,16.2,81,65,40,30.33,30.22,9,0,9,0.00
2013-11-16,56.4,37.3,28.5,36.4,26.3,21.0,76,66,42,30.46,30.30,8,0,8,0.00
2013-11-17,47.4,38.9,28.0,44.2,34.2,21.4,89,83,75,30.45,29.95,13,1,13,0.00
2013-11-18,58.6,50.3,40.6,54.9,42.0,28.5,91,74,51,29.95,29.64,17,2,17,0.00
2013-11-19,41.0,32.6,26.4,28.5,20.3,14.3,72,60,51,30.43,29.82,17,3,17,0.00
2013-11-20,36.3,26.1,18.3,19.9,14.7,11.0,74,62,48,30.73,30.43,22,1,22,0.00
2013-11-21,42.0,28.2,13.6,24.5,16.2,7.4,79,62,39,30.74,30.46,15,0,15,0.00
2013-11-22,40.6,36.4,32.1,36.1,30.8,22.0,86,80,65,30.47,29.96,4,0,4,0.00
2013-11-23,41.0,32.9,22.8,37.3,23.3,12.6,87,69,52,30.08,29.89,17,2,17,0.00
2013-11-24,23.3,17.9,11.6,14.1,5.2,-1.8,73,58,45,30.29,29.91,19,3,19,0.00
2013-11-25,27.5,16.4,7.1,9.2,1.6,-4.0,63,52,41,30.46,30.28,10,1,10,0.00
2013-11-26,33.4,30.9,25.8,26.8,23.3,18.0,82,73,68,30.41,30.14,8,1,8,0.00
2013-11-27,48.5,38.6,31.6,45.5,35.1,26.8,89,87,82,30.14,29.47,21,1,21,0.00
2013-11-28,31.8,22.6,11.1,28.4,13.7,4.0,87,69,52,30.50,29.61,17,2,17,0.00
2013-11-29,26.7,15.2,6.4,14.0,6.4,-0.7,79,68,52,30.81,30.49,10,0,10,0.00
2013-11-30,28.0,16.7,1.9,15.3,6.9,-4.8,76,66,50,30.87,30.49,12,0,12,0.00
2013-12-1,40.6,31.7,25.3,32.0,24.8,15.4,83,76,66,30.49,30.15,9,0,9,0.00
2013-12-2,37.4,33.8,31.6,32.9,29.7,27.5,86,85,83,30.15,30.02,0,0,0,0.00
2013-12-3,39.7,32.1,26.0,34.9,28.1,22.1,88,85,81,30.09,30.02,2,0,2,0.00
2013-12-4,39.0,29.8,24.0,29.0,24.1,20.2,87,79,65,30.33,30.07,11,0,11,0.00
2013-12-5,48.7,36.4,25.5,46.2,32.7,20.7,91,86,82,30.33,30.02,15,1,15,0.00
2013-12-6,48.7,40.0,31.8,46.2,36.0,27.2,91,85,77,30.26,29.99,7,0,8,0.00
2013-12-7,33.9,28.2,20.1,27.5,21.6,13.3,85,76,61,30.53,30.19,21,1,21,0.00
2013-12-8,26.4,23.0,19.5,17.4,15.0,13.1,79,71,64,30.66,30.52,8,0,8,0.00
2013-12-9,30.7,27.2,22.1,26.7,21.5,13.7,86,79,66,30.58,30.02,11,1,11,0.00
2013-12-10,32.0,26.4,14.7,25.8,20.2,7.4,86,77,64,30.07,29.91,28,1,28,0.00
2013-12-11,28.9,21.2,14.5,18.8,12.9,7.4,80,70,57,30.25,30.07,11,1,11,0.00
2013-12-12,19.5,11.6,3.9,11.6,1.8,-3.4,77,65,47,30.36,30.09,13,1,13,0.00
2013-12-13,22.6,11.7,0.6,14.6,3.8,-6.6,78,70,61,30.47,30.02,12,1,16,0.00
2013-12-14,13.6,6.7,-0.2,7.7,-2.1,-7.6,77,67,56,30.65,30.26,11,1,11,0.00
2013-12-15,24.9,19.0,13.2,19.0,13.6,7.3,82,79,76,30.26,29.63,0,0,0,0.00
2013-12-16,24.2,15.2,-0.7,12.2,5.5,-9.2,80,66,51,30.26,29.81,33,1,33,0.00
2013-12-17,13.2,2.7,-13.1,5.9,-4.6,-20.9,77,71,67,30.30,30.09,5,0,5,0.00
2013-12-18,28.9,16.7,6.4,19.5,10.2,-5.3,79,75,67,30.10,30.00,11,0,11,0.00
2013-12-19,34.3,26.1,18.1,25.3,19.3,12.6,81,76,64,30.20,30.05,12,1,12,0.00
2013-12-20,38.8,32.2,25.5,30.5,26.5,20.2,84,80,71,30.21,30.01,9,0,9,0.00
2013-12-21,47.4,38.5,34.5,41.1,33.8,29.9,87,83,77,30.08,29.99,9,1,9,0.00
2013-12-22,50.7,39.6,35.7,48.2,36.8,32.7,92,90,87,30.10,29.83,15,0,15,0.00
2013-12-23,35.9,34.0,31.2,33.3,31.6,28.1,91,91,89,30.27,30.07,3,0,3,0.00
2013-12-24,31.2,25.2,15.9,28.1,17.5,7.1,88,73,62,30.31,30.15,17,1,17,0.00
2013-12-25,18.1,12.7,5.1,7.1,3.5,-1.9,73,66,56,30.56,30.30,13,1,17,0.00
2013-12-26,28.0,21.5,13.8,22.9,15.4,6.7,83,77,66,30.51,30.17,9,0,9,0.00
2013-12-27,30.0,23.7,17.7,20.7,17.2,13.1,84,77,64,30.33,30.25,9,0,9,0.00
2013-12-28,38.3,27.2,13.4,29.2,20.9,7.9,83,77,68,30.28,30.09,12,1,12,0.00
2013-12-29,36.8,30.1,23.5,31.2,25.6,19.1,87,83,78,30.12,29.71,9,0,9,0.00
2013-12-30,33.6,25.1,5.7,30.2,20.2,0.0,88,82,73,30.27,29.71,6,0,6,0.00
2013-12-31,17.7,9.0,-1.3,10.2,3.0,-7.0,79,76,71,30.26,30.07,5,0,5,0.00
2014-1-1,20.8,11.5,3.9,13.7,5.4,-1.4,80,76,71,30.42,30.21,28,0,28,0.00
2014-1-2,10.5,6.7,-0.5,5.2,0.9,-6.4,79,77,75,30.41,29.97,4,0,4,0.00